{"data":{"norad_id":64206,"intl_designator":"2025-117D","name":"STARLINK-34311","alt_names":[],"object_type":"PAYLOAD","status":"ACTIVE","operator":null,"country":"US","launch_date":"2025-05-31","launch_site_code":"AFWTR","launch_vehicle":null,"mission":null,"orbit_class":"UNKNOWN","rcs_meters":null,"size_class":null,"mass_kg":null,"dimensions":null,"purposes":["comms"],"wikipedia_slug":null,"has_3d_model":false,"image_url":null,"decayed_at":null,"tle_current":{"epoch":"2026-09-20T13:13:51.042144Z","epoch_age_seconds":136026,"freshness":"FRESH","line1":"1 64206U 25117D   26263.55128521  .00015448  00000+0  46717-3 0  9991","line2":"2 64206  53.1583 211.3925 0000937  70.4709 289.6394 15.34414637 74431","mean_motion":15.34414637,"eccentricity":9.37e-5,"inclination_deg":53.1583,"raan_deg":211.3925,"arg_perigee_deg":70.4709,"mean_anomaly_deg":289.6394,"bstar":0.00046717,"rev_number":7443,"period_min":93.84686285419,"perigee_km":462.01875365013,"apogee_km":463.30071895852,"semimajor_km":6840.7967363043,"source":"CELESTRAK","updated_at":"2026-09-21T09:00:35.270428Z"}}}